This demonstration page uses our WeatherBlox Daily Observations layout. Learn more.

Left ArrowRight Arrow

39.01783, -85.05884

Hourly Observations for February 27, 2016

Temp ( °F °C ) Dew Point ( °F °C ) Humidity (%) Winds ( mph kmh ) Pressure ( in mb ) Visibility ( mi km ) Precip ( " mm )
12:52 am 00:52 Cloudy 33 0.6 25 -3.9 72 72 NW 6 9 30.20 1023 10 16 0.00 0.00
1:52 am 01:52 Cloudy 32 0 24 -4.4 73 73 W 3 6 30.19 1022 10 16 0.00 0.00
2:52 am 02:52 Cloudy 32 0 24 -4.4 73 73 W 5 7 30.19 1022 10 16 0.00 0.00
3:52 am 03:52 Cloudy 32 0 24 -4.4 73 73 W 6 9 30.19 1022 10 16 0.00 0.00
4:52 am 04:52 Cloudy 31 -0.6 24 -4.4 76 76 W 6 9 30.18 1022 10 16 0.00 0.00
5:52 am 05:52 Mostly Clear 30 -1.1 23 -5 75 75 W 8 13 30.19 1022 10 16 0.00 0.00
6:52 am 06:52 Mostly Clear 27 -2.8 22 -5.6 81 81 SSW 3 6 30.19 1022 10 16 0.00 0.00
7:52 am 07:52 Sunny 29 -1.7 22 -5.6 75 75 SSW 3 6 30.20 1023 10 16 0.00 0.00
8:52 am 08:52 Sunny 32 0 23 -5 69 69 SSW 7 11 30.20 1023 10 16 0.00 0.00
9:52 am 09:52 Mostly Sunny 35 1.7 23 -5 61 61 SSW 8 13 30.20 1023 10 16 0.00 0.00
10:52 am 10:52 Mostly Sunny 39 3.9 26 -3.3 60 60 S 8 13 30.18 1022 10 16 0.00 0.00
11:52 am 11:52 Partly Cloudy 42 5.6 26 -3.3 53 53 SSW 14 22 30.16 1021 10 16 0.00 0.00
12:52 pm 12:52 Mostly Sunny 46 7.8 28 -2.2 50 50 SSW 12 19 30.14 1021 10 16 0.00 0.00
1:52 pm 13:52 Mostly Sunny 48 8.9 27 -2.8 44 44 S 16 26 30.10 1019 10 16 0.00 0.00
2:52 pm 14:52 Mostly Sunny 50 10 28 -2.2 43 43 SSW 13 20 30.08 1019 10 16 0.00 0.00
3:52 pm 15:52 Mostly Sunny 51 10.6 28 -2.2 41 41 SSW 13 20 30.06 1018 10 16 0.00 0.00
4:52 pm 16:52 Partly Cloudy 51 10.6 29 -1.7 43 43 S 10 17 30.05 1018 10 16 0.00 0.00
5:52 pm 17:52 Partly Cloudy 50 10 30 -1.1 46 46 SSW 12 19 30.04 1017 10 16 0.00 0.00
6:52 pm 18:52 Partly Cloudy 48 8.9 30 -1.1 50 50 S 9 15 30.04 1017 10 16 0.00 0.00
7:52 pm 19:52 Partly Cloudy 47 8.3 30 -1.1 52 52 SSW 12 19 30.03 1017 10 16 0.00 0.00
8:52 pm 20:52 Mostly Clear 45 7.2 30 -1.1 56 56 SSW 8 13 30.03 1017 10 16 0.00 0.00
9:52 pm 21:52 Mostly Clear 44 6.7 31 -0.6 60 60 S 8 13 30.02 1017 10 16 0.00 0.00
10:52 pm 22:52 Mostly Clear 44 6.7 31 -0.6 60 60 SSW 10 17 30.01 1016 10 16 0.00 0.00
11:52 pm 23:52 Clear 43 6.1 31 -0.6 63 63 SSW 8 13 30.01 1016 10 16 0.00 0.00

Powered by AerisWeather